| time (UTC) | temp F | wind direction | speed MPH | gust MPH | rain 1hr in | rain 24hr in | rain mn in | humidity % | barometer mb |
| 20260507033041 | 62 | 0 | 0.0 | 1.0 | 0.00 | 0.00 | 0.00 | 57 | 1011.5 |
| 20260507031537 | 62 | 110 | 0.0 | 3.0 | 0.00 | 0.00 | 0.00 | 57 | 1011.4 |
| 20260507030038 | 62 | 0 | 1.0 | 3.0 | 0.00 | 0.00 | 0.00 | 57 | 1011.5 |
| 20260507024543 | 62 | 109 | 1.0 | 4.0 | 0.00 | 0.00 | 0.00 | 58 | 1011.5 |
| 20260507023038 | 62 | 91 | 1.0 | 6.0 | 0.00 | 0.00 | 0.00 | 58 | 1011.6 |
| 20260507021547 | 62 | 0 | 0.0 | 0.0 | 0.00 | 0.00 | 0.00 | 59 | 1011.6 |
| 20260507020034 | 62 | 0 | 0.0 | 0.0 | 0.00 | 0.00 | 0.00 | 59 | 1011.8 |
| 20260507014537 | 62 | 0 | 0.0 | 0.0 | 0.00 | 0.00 | 0.00 | 59 | 1011.9 |
| 20260507013038 | 62 | 0 | 0.0 | 0.0 | 0.00 | 0.00 | 0.00 | 59 | 1012.1 |
| 20260507011539 | 62 | 0 | 0.0 | 0.0 | 0.00 | 0.00 | 0.00 | 59 | 1012.0 |
| 20260507010042 | 62 | 0 | 0.0 | 0.0 | 0.00 | 0.00 | 0.00 | 59 | 1012.0 |
| 20260507004536 | 63 | 0 | 0.0 | 0.0 | 0.00 | 0.00 | 0.00 | 60 | 1011.9 |
| 20260507003032 | 63 | 0 | 0.0 | 0.0 | 0.00 | 0.00 | 0.00 | 60 | 1012.2 |
| 20260507001538 | 63 | 0 | 0.0 | 0.0 | 0.00 | 0.00 | 0.00 | 60 | 1012.3 |
| 20260507000038 | 63 | 0 | 0.0 | 0.0 | 0.00 | 0.00 | 0.00 | 60 | 1012.4 |
| 20260506234536 | 63 | 0 | 0.0 | 0.0 | 0.00 | 0.00 | 0.00 | 60 | 1012.4 |
| 20260506233036 | 63 | 0 | 0.0 | 0.0 | 0.00 | 0.00 | 0.00 | 60 | 1012.5 |
| 20260506231537 | 63 | 0 | 0.0 | 0.0 | 0.00 | 0.00 | 0.00 | 60 | 1012.6 |
| 20260506230039 | 63 | 0 | 0.0 | 0.0 | 0.00 | 0.00 | 0.00 | 61 | 1012.7 |
| 20260506224539 | 63 | 0 | 0.0 | 0.0 | 0.00 | 0.00 | 0.00 | 61 | 1012.7 |
| 20260506223033 | 63 | 0 | 0.0 | 0.0 | 0.00 | 0.00 | 0.00 | 61 | 1012.6 |
| 20260506221536 | 63 | 0 | 0.0 | 0.0 | 0.00 | 0.00 | 0.00 | 60 | 1012.7 |
| 20260506220040 | 64 | 0 | 0.0 | 0.0 | 0.00 | 0.00 | 0.00 | 60 | 1012.7 |
| 20260506214542 | 64 | 0 | 0.0 | 0.0 | 0.00 | 0.00 | 0.00 | 60 | 1012.9 |
| 20260506213037 | 64 | 0 | 0.0 | 4.0 | 0.00 | 0.00 | 0.00 | 60 | 1012.9 |
| 20260506211537 | 64 | 98 | 0.0 | 3.0 | 0.00 | 0.00 | 0.00 | 60 | 1013.0 |
| 20260506210039 | 64 | 0 | 0.0 | 3.0 | 0.00 | 0.00 | 0.00 | 60 | 1013.0 |
| 20260506204550 | 64 | 0 | 0.0 | 4.0 | 0.00 | 0.00 | 0.00 | 61 | 1012.9 |
| 20260506203039 | 64 | 106 | 0.0 | 4.0 | 0.00 | 0.00 | 0.00 | 61 | 1012.9 |
| 20260506201540 | 64 | 88 | 2.0 | 6.0 | 0.00 | 0.00 | 0.00 | 61 | 1012.5 |
| 20260506200037 | 64 | 94 | 1.0 | 6.0 | 0.00 | 0.00 | 0.00 | 60 | 1012.3 |
| 20260506194542 | 65 | 82 | 2.0 | 6.0 | 0.00 | 0.00 | 0.00 | 60 | 1012.1 |
| 20260506193035 | 65 | 88 | 2.0 | 7.0 | 0.00 | 0.00 | 0.00 | 59 | 1011.8 |
| 20260506191535 | 65 | 92 | 3.0 | 8.0 | 0.00 | 0.00 | 0.00 | 59 | 1011.7 |
| 20260506190054 | 66 | 46 | 3.0 | 12.0 | 0.00 | 0.00 | 0.00 | 58 | 1011.7 |
| 20260506184537 | 66 | 65 | 4.0 | 11.0 | 0.00 | 0.00 | 0.00 | 58 | 1011.5 |
| 20260506183040 | 66 | 148 | 7.0 | 13.0 | 0.00 | 0.00 | 0.00 | 56 | 1011.4 |
| 20260506181542 | 67 | 112 | 6.0 | 13.0 | 0.00 | 0.00 | 0.00 | 56 | 1011.5 |
| 20260506180039 | 67 | 111 | 7.0 | 13.0 | 0.00 | 0.00 | 0.00 | 54 | 1011.4 |
| 20260506174537 | 67 | 105 | 8.0 | 17.0 | 0.00 | 0.00 | 0.00 | 54 | 1011.3 |
| 20260506173037 | 68 | 119 | 7.0 | 16.0 | 0.00 | 0.00 | 0.00 | 53 | 1011.3 |
| 20260506171541 | 68 | 91 | 7.0 | 14.0 | 0.00 | 0.00 | 0.00 | 52 | 1011.3 |
| 20260506170038 | 68 | 67 | 5.0 | 14.0 | 0.00 | 0.00 | 0.00 | 53 | 1011.3 |
| 20260506164546 | 69 | 100 | 7.0 | 17.0 | 0.00 | 0.00 | 0.00 | 51 | 1011.2 |
| 20260506163040 | 69 | 85 | 9.0 | 19.0 | 0.00 | 0.00 | 0.00 | 49 | 1010.9 |
| 20260506161544 | 70 | 77 | 10.0 | 15.0 | 0.00 | 0.00 | 0.00 | 48 | 1010.9 |
| 20260506160043 | 70 | 161 | 8.0 | 16.0 | 0.00 | 0.00 | 0.00 | 47 | 1010.9 |
| 20260506154537 | 70 | 97 | 8.0 | 16.0 | 0.00 | 0.00 | 0.00 | 47 | 1010.8 |
| 20260506153038 | 70 | 79 | 10.0 | 16.0 | 0.00 | 0.00 | 0.00 | 48 | 1011.0 |
| 20260506151553 | 70 | 131 | 9.0 | 19.0 | 0.00 | 0.00 | 0.00 | 47 | 1011.1 |
| 20260506150036 | 70 | 92 | 9.0 | 17.0 | 0.00 | 0.00 | 0.00 | 48 | 1011.1 |
| 20260506144532 | 70 | 132 | 10.0 | 18.0 | 0.00 | 0.00 | 0.00 | 49 | 1011.0 |
| 20260506143046 | 71 | 158 | 8.0 | 20.0 | 0.00 | 0.00 | 0.00 | 49 | 1011.2 |
| 20260506141537 | 71 | 83 | 10.0 | 21.0 | 0.00 | 0.00 | 0.00 | 48 | 1011.4 |
| 20260506140039 | 72 | 95 | 9.0 | 19.0 | 0.00 | 0.00 | 0.00 | 48 | 1011.5 |
| 20260506134536 | 71 | 126 | 9.0 | 18.0 | 0.00 | 0.00 | 0.00 | 49 | 1011.4 |
| 20260506133040 | 72 | 76 | 8.0 | 16.0 | 0.00 | 0.00 | 0.00 | 47 | 1011.5 |
| 20260506131532 | 72 | 88 | 10.0 | 19.0 | 0.00 | 0.00 | 0.00 | 47 | 1011.4 |
| 20260506130037 | 72 | 113 | 8.0 | 16.0 | 0.00 | 0.00 | 0.00 | 48 | 1011.6 |
| 20260506124538 | 73 | 87 | 8.0 | 17.0 | 0.00 | 0.00 | 0.00 | 46 | 1011.7 |
| 20260506123038 | 72 | 96 | 9.0 | 17.0 | 0.00 | 0.00 | 0.00 | 46 | 1011.5 |
| 20260506121536 | 73 | 63 | 8.0 | 18.0 | 0.00 | 0.00 | 0.00 | 44 | 1011.7 |
| 20260506120040 | 73 | 74 | 9.0 | 15.0 | 0.00 | 0.00 | 0.00 | 44 | 1011.8 |
| 20260506114542 | 73 | 49 | 7.0 | 15.0 | 0.00 | 0.00 | 0.00 | 44 | 1011.9 |
| 20260506113037 | 72 | 101 | 10.0 | 19.0 | 0.00 | 0.00 | 0.00 | 45 | 1011.9 |
| 20260506111539 | 72 | 134 | 10.0 | 19.0 | 0.00 | 0.00 | 0.00 | 46 | 1011.9 |
| 20260506110041 | 73 | 60 | 10.0 | 17.0 | 0.00 | 0.00 | 0.00 | 43 | 1012.0 |
| 20260506104533 | 72 | 107 | 6.0 | 16.0 | 0.00 | 0.00 | 0.00 | 42 | 1012.1 |
| 20260506103034 | 73 | 86 | 6.0 | 14.0 | 0.00 | 0.00 | 0.00 | 41 | 1012.1 |
| 20260506101550 | 73 | 69 | 5.0 | 13.0 | 0.00 | 0.00 | 0.00 | 41 | 1012.2 |
| 20260506100038 | 72 | 144 | 5.0 | 12.0 | 0.00 | 0.00 | 0.00 | 42 | 1012.3 |
| 20260506094545 | 71 | 59 | 6.0 | 13.0 | 0.00 | 0.00 | 0.00 | 43 | 1012.3 |
| 20260506093033 | 71 | 98 | 3.0 | 10.0 | 0.00 | 0.00 | 0.00 | 46 | 1012.2 |
| 20260506091533 | 71 | 101 | 4.0 | 12.0 | 0.00 | 0.00 | 0.00 | 46 | 1012.2 |
| 20260506090036 | 69 | 90 | 4.0 | 11.0 | 0.00 | 0.00 | 0.00 | 49 | 1012.0 |
| 20260506084537 | 67 | 0 | 1.0 | 5.0 | 0.00 | 0.00 | 0.00 | 54 | 1011.9 |
| 20260506083040 | 67 | 67 | 1.0 | 4.0 | 0.00 | 0.00 | 0.00 | 55 | 1012.1 |
| 20260506081538 | 67 | 0 | 0.0 | 3.0 | 0.00 | 0.00 | 0.00 | 56 | 1012.1 |
| 20260506073037 | 66 | 0 | 0.0 | 3.0 | 0.00 | 0.00 | 0.00 | 56 | 1011.9 |
| 20260506071550 | 65 | 0 | 0.0 | 0.0 | 0.00 | 0.00 | 0.00 | 54 | 1012.0 |
| 20260506061537 | 60 | 0 | 0.0 | 3.0 | 0.00 | 0.00 | 0.00 | 58 | 1012.0 |
| 20260506044537 | 57 | 296 | 1.0 | 4.0 | 0.00 | 0.00 | 0.00 | 60 | 1011.2 |
| 20260506043036 | 58 | 0 | 0.0 | 0.0 | 0.00 | 0.00 | 0.00 | 61 | 1010.9 |
| 20260506041545 | 57 | 0 | 0.0 | 3.0 | 0.00 | 0.00 | 0.00 | 61 | 1011.0 |
| 20260506040033 | 57 | 121 | 2.0 | 6.0 | 0.00 | 0.00 | 0.00 | 61 | 1010.9 |
| 20260506034537 | 58 | 96 | 1.0 | 3.0 | 0.00 | 0.00 | 0.00 | 60 | 1010.8 |